Location: Tel Aviv
(32.0670°N, 34.7670°E)
Time: 21:47:16
(UTC+02:00)

CUTE-I - Pass Details

Date: 23 December 2025
Orbit: 805 x 817 km, 98.7° (Epoch: 21 January)

Event Time Altitude Azimuth Distance (km) Brightness Sun altitude
Rises 05:38:41 0° 18° (NNE) 3,347 ? -12.4°
Reaches altitude 10° 05:41:05 10° 22° (NNE) 2,412 ? -12.0°
Maximum altitude 05:46:20 56° 101° (E) 964 ? -10.9°
Drops below altitude 10° 05:51:32 10° 179° (S) 2,400 ? -9.9°
Sets 05:53:55 0° 183° (S) 3,328 ? -9.4°
